When you browse on this site, cookies collect data to enhance your experience and personalize the content and advertising you see.
Visit our Privacy Policy to learn more. By continuing to use the site, you agree to this use of cookies and data.

Meteo pe oră la Mendoza

Astăzi, 10 Iulie, Vineri

Timp Temperatura Precipitaţii Vânt Presiune Umiditate
00:00 +7°C° 0 mm 2 m/s 693 mmHg 55%
01:00 +7°C° 0 mm 2 m/s 693 mmHg 57%
02:00 +7°C° 0 mm 2 m/s 693 mmHg 58%
03:00 +7°C° 0 mm 2 m/s 692 mmHg 59%
04:00 +7°C° 0 mm 2 m/s 692 mmHg 59%
05:00 +7°C° 0 mm 2 m/s 693 mmHg 59%
06:00 +7°C° 0 mm 2 m/s 693 mmHg 59%
07:00 +7°C° 0 mm 2 m/s 693 mmHg 59%
08:00 +9°C° 0 mm 2 m/s 694 mmHg 52%
09:00 +12°C° 0 mm 2 m/s 694 mmHg 46%
10:00 +14°C° 0 mm 2 m/s 695 mmHg 39%
11:00 +15°C° 0 mm 2 m/s 695 mmHg 36%
12:00 +16°C° 0 mm 2 m/s 695 mmHg 33%
13:00 +17°C° 0 mm 2 m/s 695 mmHg 31%
14:00 +17°C° 0 mm 2 m/s 696 mmHg 32%
15:00 +16°C° 0 mm 2 m/s 696 mmHg 34%
16:00 +16°C° 0 mm 2 m/s 697 mmHg 36%
17:00 +14°C° 0 mm 2 m/s 697 mmHg 41%
18:00 +13°C° 0 mm 2 m/s 697 mmHg 47%
19:00 +12°C° 0 mm 2 m/s 697 mmHg 53%
20:00 +10°C° 0 mm 2 m/s 698 mmHg 59%
21:00 +9°C° 0 mm 2 m/s 698 mmHg 65%
22:00 +9°C° 0 mm 1 m/s 698 mmHg 71%
23:00 +9°C° 0 mm 1 m/s 697 mmHg 72%

Mâine, 11 Iulie, Sâmbătă

Timp Temperatura Precipitaţii Vânt Presiune Umiditate
00:00 +9°C° 0 mm 1 m/s 697 mmHg 72%
01:00 +8°C° 0 mm 2 m/s 696 mmHg 72%
02:00 +7°C° 0 mm 2 m/s 696 mmHg 72%
03:00 +7°C° 0 mm 2 m/s 695 mmHg 71%
04:00 +7°C° 0 mm 2 m/s 695 mmHg 70%
05:00 +8°C° 0 mm 1 m/s 695 mmHg 69%
06:00 +8°C° 0 mm 1 m/s 695 mmHg 67%
07:00 +7°C° 0 mm 1 m/s 695 mmHg 66%
08:00 +9°C° 0 mm 1 m/s 695 mmHg 59%
09:00 +11°C° 0 mm 1 m/s 695 mmHg 52%
10:00 +12°C° 0 mm 1 m/s 696 mmHg 46%
11:00 +13°C° 0 mm 1 m/s 695 mmHg 44%
12:00 +14°C° 0 mm 1 m/s 695 mmHg 42%
13:00 +14°C° 0 mm 1 m/s 694 mmHg 40%
14:00 +15°C° 0 mm 1 m/s 694 mmHg 40%
15:00 +15°C° 0 mm 1 m/s 694 mmHg 40%
16:00 +15°C° 0 mm 1 m/s 695 mmHg 40%
17:00 +13°C° 0 mm 0 m/s 695 mmHg 43%
18:00 +12°C° 0 mm 0 m/s 695 mmHg 46%
19:00 +11°C° 0 mm 0 m/s 695 mmHg 49%
20:00 +11°C° 0 mm 1 m/s 695 mmHg 48%
21:00 +11°C° 0 mm 1 m/s 695 mmHg 48%
22:00 +11°C° 0 mm 1 m/s 696 mmHg 48%
23:00 +11°C° 0 mm 1 m/s 696 mmHg 48%

Poimâine, 12 Iulie, Duminică

Timp Temperatura Precipitaţii Vânt Presiune Umiditate
00:00 +11°C° 0 mm 1 m/s 696 mmHg 49%
01:00 +10°C° 0 mm 1 m/s 696 mmHg 49%
02:00 +10°C° 0 mm 1 m/s 696 mmHg 52%
03:00 +9°C° 0 mm 1 m/s 696 mmHg 55%
04:00 +9°C° 0 mm 1 m/s 696 mmHg 57%
05:00 +9°C° 0 mm 1 m/s 696 mmHg 58%
06:00 +8°C° 0 mm 2 m/s 696 mmHg 59%
07:00 +8°C° 0 mm 2 m/s 697 mmHg 60%
08:00 +9°C° 0 mm 2 m/s 697 mmHg 56%
09:00 +12°C° 0 mm 2 m/s 697 mmHg 53%
10:00 +13°C° 0 mm 2 m/s 698 mmHg 50%
11:00 +14°C° 0 mm 2 m/s 698 mmHg 48%
12:00 +14°C° 0 mm 3 m/s 697 mmHg 47%
13:00 +14°C° 0 mm 3 m/s 697 mmHg 46%
14:00 +14°C° 0 mm 3 m/s 697 mmHg 47%
15:00 +14°C° 0 mm 3 m/s 697 mmHg 48%
16:00 +13°C° 0 mm 3 m/s 698 mmHg 49%
17:00 +12°C° 0 mm 3 m/s 698 mmHg 52%
18:00 +11°C° 0 mm 3 m/s 699 mmHg 54%
19:00 +9°C° 0 mm 3 m/s 699 mmHg 56%
20:00 +9°C° 0 mm 3 m/s 700 mmHg 59%
21:00 +8°C° 0 mm 3 m/s 700 mmHg 63%
22:00 +7°C° 0 mm 3 m/s 701 mmHg 66%
23:00 +7°C° 0 mm 3 m/s 701 mmHg 69%

13 Iulie, Luni

Timp Temperatura Precipitaţii Vânt Presiune Umiditate
00:00 +5°C° 0 mm 3 m/s 701 mmHg 73%
01:00 +6°C° 0 mm 2 m/s 701 mmHg 76%
02:00 +6°C° 0 mm 2 m/s 701 mmHg 78%
03:00 +5°C° 0 mm 2 m/s 701 mmHg 79%
04:00 +5°C° 0 mm 2 m/s 701 mmHg 81%
05:00 +6°C° 0 mm 1 m/s 702 mmHg 80%
06:00 +6°C° 0 mm 1 m/s 702 mmHg 80%
07:00 +6°C° 0 mm 1 m/s 703 mmHg 79%
08:00 +7°C° 0 mm 1 m/s 703 mmHg 79%
09:00 +7°C° 0 mm 1 m/s 703 mmHg 79%
10:00 +6°C° 0 mm 2 m/s 704 mmHg 78%
11:00 +7°C° 0 mm 2 m/s 703 mmHg 77%
12:00 +7°C° 0 mm 2 m/s 702 mmHg 75%
13:00 +7°C° 0 mm 2 m/s 702 mmHg 73%
14:00 +7°C° 0 mm 2 m/s 702 mmHg 71%
15:00 +7°C° 0 mm 2 m/s 702 mmHg 69%
16:00 +9°C° 0 mm 1 m/s 702 mmHg 67%
17:00 +8°C° 0 mm 1 m/s 702 mmHg 68%
18:00 +8°C° 0 mm 1 m/s 702 mmHg 69%
19:00 +7°C° 0 mm 1 m/s 702 mmHg 70%
20:00 +7°C° 0 mm 1 m/s 702 mmHg 69%
21:00 +7°C° 0 mm 1 m/s 702 mmHg 69%
22:00 +7°C° 0 mm 1 m/s 702 mmHg 68%
23:00 +7°C° 0 mm 1 m/s 701 mmHg 68%

14 Iulie, Marţi

Timp Temperatura Precipitaţii Vânt Presiune Umiditate
00:00 +5°C° 0 mm 2 m/s 701 mmHg 68%
01:00 +5°C° 0 mm 2 m/s 701 mmHg 68%
02:00 +6°C° 0 mm 1 m/s 700 mmHg 68%
03:00 +6°C° 0 mm 1 m/s 700 mmHg 68%
04:00 +5°C° 0 mm 1 m/s 699 mmHg 68%
05:00 +5°C° 0 mm 1 m/s 699 mmHg 68%
06:00 +5°C° 0 mm 1 m/s 699 mmHg 67%
07:00 +5°C° 0 mm 1 m/s 699 mmHg 67%
08:00 +7°C° 0 mm 1 m/s 699 mmHg 61%
09:00 +9°C° 0 mm 1 m/s 700 mmHg 55%
10:00 +11°C° 0 mm 1 m/s 700 mmHg 49%
11:00 +12°C° 0 mm 2 m/s 699 mmHg 47%
12:00 +13°C° 0 mm 2 m/s 698 mmHg 44%
13:00 +13°C° 0 mm 3 m/s 698 mmHg 42%
14:00 +14°C° 0 mm 2 m/s 697 mmHg 42%
15:00 +14°C° 0 mm 2 m/s 697 mmHg 42%
16:00 +14°C° 0 mm 1 m/s 697 mmHg 42%
17:00 +13°C° 0 mm 1 m/s 697 mmHg 44%
18:00 +12°C° 0 mm 1 m/s 697 mmHg 47%
19:00 +11°C° 0 mm 1 m/s 697 mmHg 49%
20:00 +10°C° 0 mm 1 m/s 697 mmHg 50%
21:00 +10°C° 0 mm 1 m/s 697 mmHg 50%
22:00 +9°C° 0 mm 1 m/s 697 mmHg 51%
23:00 +9°C° 0 mm 1 m/s 696 mmHg 54%

15 Iulie, Miercuri

Timp Temperatura Precipitaţii Vânt Presiune Umiditate
00:00 +8°C° 0 mm 1 m/s 696 mmHg 56%
01:00 +8°C° 0 mm 1 m/s 696 mmHg 59%
02:00 +7°C° 0 mm 1 m/s 696 mmHg 59%
03:00 +7°C° 0 mm 1 m/s 696 mmHg 59%
04:00 +7°C° 0 mm 1 m/s 695 mmHg 59%
05:00 +7°C° 0 mm 1 m/s 696 mmHg 60%
06:00 +7°C° 0 mm 1 m/s 696 mmHg 61%
07:00 +6°C° 0 mm 1 m/s 697 mmHg 62%
08:00 +9°C° 0 mm 1 m/s 697 mmHg 55%
09:00 +11°C° 0 mm 1 m/s 697 mmHg 48%
10:00 +13°C° 0 mm 1 m/s 697 mmHg 41%
11:00 +14°C° 0 mm 1 m/s 697 mmHg 38%
12:00 +15°C° 0 mm 1 m/s 696 mmHg 35%
13:00 +16°C° 0 mm 2 m/s 696 mmHg 32%
14:00 +16°C° 0 mm 2 m/s 696 mmHg 32%
15:00 +16°C° 0 mm 2 m/s 696 mmHg 32%
16:00 +16°C° 0 mm 2 m/s 696 mmHg 32%
17:00 +15°C° 0 mm 2 m/s 696 mmHg 35%
18:00 +14°C° 0 mm 2 m/s 696 mmHg 37%
19:00 +12°C° 0 mm 2 m/s 696 mmHg 39%
20:00 +12°C° 0 mm 2 m/s 696 mmHg 41%
21:00 +10°C° 0 mm 2 m/s 696 mmHg 42%
22:00 +10°C° 0 mm 2 m/s 696 mmHg 43%
23:00 +9°C° 0 mm 2 m/s 696 mmHg 45%
Arată mai mult